Date String (YYYY-MM-DD hh:mm:ss) UTC,Instrument flags,absolute air pressure of the measurement (hPa),sample flow rate (lpm),inlet stack bypass flow (lpm),air temperature of the measurement (°C),ambient temperature measured by the external sensor (°C),aerosol sample conditioner tube jacket temperature (°C),OPC LED temperature (°C),internal box temperature (°C),relative humidity of the measurement (%),span deviation,mass concentration of particles derived from Lorenz-Mie calculation of OPC scattering (μg/m³),mass concentration of particles derived from Lorenz-Mie calculation of OPC scattering (μg/m³),mass concentration of particles derived from Lorenz-Mie calculation of OPC scattering (μg/m³)
DateTimeUTC,F1_M11,P_M11,Q1_M11,Q2_M11,T1_M11,T2_M11,T3_M11,T4_M11,T5_M11,U1_M11,ZSPAN_M11,X2_M11,X0_M11,X1_M11
2023-09-14 11:00:00,SystemResetWarning,0831.1,5.00,000.00,028.9,027.5,000.0,037.4,030.4,17.7,0000.0,0004.35,0007.31,0003.99
2023-09-14 11:01:00,SystemResetWarning,0831.1,5.01,000.00,028.9,027.5,000.0,037.4,030.5,17.4,0000.0,0004.36,0007.35,0003.99
2023-09-14 11:02:00,SystemResetWarning,0831.1,5.01,000.00,028.9,027.5,000.0,037.4,030.5,17.4,0000.0,0004.37,0007.39,0004.00
2023-09-14 11:03:00,SystemResetWarning,0831.1,5.00,000.00,028.9,027.5,000.0,037.4,030.5,17.4,0000.0,0004.39,0007.35,0004.01
2023-09-14 11:04:00,SystemResetWarning,0831.1,5.00,000.00,028.9,027.5,000.0,037.4,030.4,17.4,0000.0,0004.40,0007.63,0004.00
2023-09-14 11:05:00,SystemResetWarning,0831.1,5.00,000.00,028.9,027.4,000.0,037.4,030.4,17.4,0000.0,0004.39,0007.73,0003.99
2023-09-14 11:06:00,SystemResetWarning,0831.1,5.00,000.00,028.9,027.4,000.0,037.4,030.5,17.5,0000.0,0004.38,0007.77,0003.98
2023-09-14 11:07:00,SystemResetWarning,0831.1,5.00,000.00,028.9,027.4,000.0,037.4,030.4,17.6,0000.0,0004.38,0007.79,0003.97
2023-09-14 11:08:00,SystemResetWarning,0831.2,5.00,000.00,028.9,027.4,000.0,037.4,030.4,17.7,0000.0,0004.35,0007.69,0003.96
2023-09-14 11:09:00,SystemResetWarning,0831.1,5.00,000.00,028.9,027.4,000.0,037.4,030.4,17.7,0000.0,0004.34,0007.49,0003.96
2023-09-14 11:10:00,SystemResetWarning,0831.1,4.99,000.00,028.9,027.4,000.0,037.4,030.4,17.7,0000.0,0004.30,0007.49,0003.95
2023-09-14 11:11:00,SystemResetWarning,0831.1,5.00,000.00,028.9,027.3,000.0,037.4,030.4,17.6,0000.0,0004.29,0007.57,0003.95
2023-09-14 11:12:00,SystemResetWarning,0831.1,5.00,000.00,028.9,027.3,000.0,037.4,030.4,17.8,0000.0,0004.33,0007.77,0003.96
2023-09-14 11:13:00,SystemResetWarning,0831.2,5.00,000.00,028.9,027.3,000.0,037.3,030.4,18.0,0000.0,0004.33,0007.78,0003.96
2023-09-14 11:14:00,SystemResetWarning,0831.2,5.00,000.00,028.9,027.3,000.0,037.4,030.4,17.9,0000.0,0004.33,0007.80,0003.97
2023-09-14 11:15:00,SystemResetWarning,0831.2,5.00,000.00,028.9,027.4,000.0,037.3,030.4,18.1,0000.0,0004.33,0007.65,0003.98
2023-09-14 11:16:00,SystemResetWarning,0831.2,5.00,000.00,028.9,027.4,000.0,037.3,030.4,18.1,0000.0,0004.34,0007.43,0004.01
2023-09-14 11:17:00,SystemResetWarning,0831.2,5.00,000.00,028.9,027.4,000.0,037.3,030.4,17.9,0000.0,0004.36,0008.23,0004.03
2023-09-14 11:18:00,SystemResetWarning,0831.2,5.00,000.00,028.9,027.4,000.0,037.3,030.4,17.9,0000.0,0004.39,0008.23,0004.07
2023-09-14 11:19:00,SystemResetWarning,0831.2,5.00,000.00,028.9,027.4,000.0,037.3,030.4,17.8,0000.0,0004.45,0008.35,0004.11
2023-09-14 11:20:00,SystemResetWarning,0831.2,5.00,000.00,028.9,027.4,000.0,037.3,030.4,17.8,0000.0,0004.50,0008.40,0004.16
2023-09-14 11:21:00,SystemResetWarning,0831.2,5.01,000.00,028.9,027.4,000.0,037.3,030.4,17.8,0000.0,0004.58,0008.52,0004.22
2023-09-14 11:22:00,SystemResetWarning,0831.2,5.02,000.00,028.9,027.4,000.0,037.3,030.4,17.8,0000.0,0004.68,0008.82,0004.28
2023-09-14 11:23:00,SystemResetWarning,0831.3,5.00,000.00,028.9,027.4,000.0,037.3,030.4,17.8,0000.0,0004.75,0008.83,0004.33
2023-09-14 11:24:00,SystemResetWarning,0831.2,4.99,000.00,028.9,027.4,000.0,037.3,030.4,18.0,0000.0,0004.79,0008.80,0004.39
2023-09-14 11:25:00,SystemResetWarning,0831.2,4.99,000.00,028.9,027.4,000.0,037.3,030.4,17.9,0000.0,0004.84,0008.89,0004.43
2023-09-14 11:26:00,SystemResetWarning,0831.3,5.00,000.00,028.9,027.4,000.0,037.3,030.4,18.0,0000.0,0004.92,0009.25,0004.47
2023-09-14 11:27:00,SystemResetWarning,0831.3,5.01,000.00,028.9,027.4,000.0,037.3,030.4,18.2,0000.0,0005.00,0009.64,0004.51
2023-09-14 11:28:00,SystemResetWarning,0831.3,5.01,000.00,028.9,027.4,000.0,037.3,030.4,18.1,0000.0,0005.06,0009.00,0004.54
2023-09-14 11:29:00,SystemResetWarning,0831.3,5.00,000.00,028.9,027.4,000.0,037.3,030.4,18.1,0000.0,0005.08,0009.00,0004.56
2023-09-14 11:30:00,SystemResetWarning,0831.3,4.99,000.00,028.9,027.3,000.0,037.3,030.4,18.2,0000.0,0005.09,0009.01,0004.56
2023-09-14 11:31:00,SystemResetWarning,0831.3,4.99,000.00,028.9,027.4,000.0,037.3,030.4,18.1,0000.0,0005.11,0009.09,0004.57
2023-09-14 11:32:00,SystemResetWarning,0831.3,5.00,000.00,028.9,027.4,000.0,037.3,030.4,18.0,0000.0,0005.14,0009.11,0004.56
2023-09-14 11:33:00,SystemResetWarning,0831.2,5.01,000.00,028.9,027.3,000.0,037.3,030.4,18.0,0000.0,0005.12,0009.13,0004.55
2023-09-14 11:34:00,SystemResetWarning,0831.2,5.01,000.00,028.9,027.3,000.0,037.3,030.4,18.1,0000.0,0005.10,0009.89,0004.54
2023-09-14 11:35:00,SystemResetWarning,0831.2,4.99,000.00,028.9,027.3,000.0,037.3,030.4,18.1,0000.0,0005.12,0009.96,0004.54
2023-09-14 11:36:00,SystemResetWarning,0831.3,4.99,000.00,028.9,027.3,000.0,037.3,030.4,18.2,0000.0,0005.14,0010.05,0004.55
2023-09-14 11:37:00,SystemResetWarning,0831.3,5.00,000.00,028.9,027.3,000.0,037.3,030.4,18.2,0000.0,0005.15,0009.98,0004.56
2023-09-14 11:38:00,SystemResetWarning,0831.3,5.00,000.00,028.9,027.3,000.0,037.3,030.4,18.5,0000.0,0005.12,0009.63,0004.57
2023-09-14 11:39:00,SystemResetWarning,0831.3,5.01,000.00,028.9,027.3,000.0,037.3,030.4,18.5,0000.0,0005.12,0009.63,0004.57
2023-09-14 11:40:00,SystemResetWarning,0831.3,5.01,000.00,028.9,027.3,000.0,037.3,030.4,18.5,0000.0,0005.11,0009.50,0004.58
2023-09-14 11:41:00,SystemResetWarning,0831.3,5.00,000.00,028.9,027.3,000.0,037.3,030.4,18.6,0000.0,0005.13,0009.53,0004.60
2023-09-14 11:42:00,SystemResetWarning,0831.3,4.99,000.00,028.9,027.3,000.0,037.3,030.4,18.8,0000.0,0005.13,0009.57,0004.61
2023-09-14 11:43:00,SystemResetWarning,0831.3,5.00,000.00,028.9,027.3,000.0,037.3,030.4,18.5,0000.0,0005.12,0009.53,0004.62
2023-09-14 11:44:00,SystemResetWarning,0831.3,5.01,000.00,028.9,027.3,000.0,037.3,030.4,18.5,0000.0,0005.13,0009.54,0004.64
2023-09-14 11:45:00,SystemResetWarning,0831.3,5.01,000.00,028.9,027.3,000.0,037.3,030.4,18.6,0000.0,0005.15,0009.16,0004.66
2023-09-14 11:46:00,SystemResetWarning,0831.3,4.99,000.00,028.9,027.3,000.0,037.3,030.4,18.6,0000.0,0005.17,0009.12,0004.67
2023-09-14 11:47:00,SystemResetWarning,0831.3,4.99,000.00,028.9,027.3,000.0,037.3,030.4,18.6,0000.0,0005.19,0009.23,0004.66
2023-09-14 11:48:00,SystemResetWarning,0831.3,5.00,000.00,028.9,027.3,000.0,037.3,030.4,18.7,0000.0,0005.18,0009.17,0004.67
2023-09-14 11:49:00,SystemResetWarning,0831.3,5.01,000.00,028.9,027.3,000.0,037.3,030.4,18.4,0000.0,0005.18,0009.40,0004.67
2023-09-14 11:50:00,SystemResetWarning,0831.3,5.01,000.00,028.8,027.3,000.0,037.3,030.4,18.1,0000.0,0005.15,0009.39,0004.66
2023-09-14 11:51:00,SystemResetWarning,0831.3,4.98,000.00,028.8,027.3,000.0,037.3,030.4,18.1,0000.0,0005.15,0009.47,0004.64
2023-09-14 11:52:00,SystemResetWarning,0831.3,4.99,000.00,028.8,027.3,000.0,037.3,030.4,18.1,0000.0,0005.13,0009.49,0004.61
2023-09-14 11:53:00,SystemResetWarning,0831.3,5.01,000.00,028.8,027.3,000.0,037.3,030.3,18.3,0000.0,0005.10,0009.44,0004.59
2023-09-14 11:54:00,SystemResetWarning,0831.3,5.01,000.00,028.8,027.3,000.0,037.3,030.3,18.3,0000.0,0005.11,0009.52,0004.58
2023-09-14 11:55:00,SystemResetWarning,0831.3,4.99,000.00,028.8,027.3,000.0,037.3,030.3,18.4,0000.0,0005.09,0009.68,0004.56
2023-09-14 11:56:00,SystemResetWarning,0831.3,4.99,000.00,028.8,027.3,000.0,037.3,030.3,18.4,0000.0,0005.05,0009.32,0004.53
2023-09-14 11:57:00,SystemResetWarning,0831.3,5.01,000.00,028.8,027.3,000.0,037.3,030.3,18.3,0000.0,0005.03,0009.38,0004.51
2023-09-14 11:58:00,SystemResetWarning,0831.3,5.00,000.00,028.8,027.3,000.0,037.3,030.3,18.3,0000.0,0004.98,0009.62,0004.48
2023-09-14 11:59:00,SystemResetWarning,0831.3,5.00,000.00,028.8,027.3,000.0,037.3,030.3,18.1,0000.0,0004.96,0010.03,0004.46
